{"data":{"norad_id":66108,"epoch":"2026-09-20T05:34:40.459008Z","epoch_age_seconds":123559,"freshness":"FRESH","line1":"1 66108U 25236Y   26263.23241272  .00020277  00000+0  60957-3 0  9998","line2":"2 66108  53.1581 277.1411 0001563  91.2648 268.8533 15.34403196 52710","mean_motion":15.34403196,"eccentricity":0.0001563,"inclination_deg":53.1581,"raan_deg":277.1411,"arg_perigee_deg":91.2648,"mean_anomaly_deg":268.8533,"bstar":0.00060957,"rev_number":5271,"period_min":93.847562606354,"perigee_km":461.62451919324,"apogee_km":463.76296288289,"semimajor_km":6840.8307410381,"source":"CELESTRAK","updated_at":"2026-09-21T09:00:35.804929Z"}}